User: anonymous   Login
Location: ??
(35.5052°N, 139.7262°E)
Time: 12:02:56
(UTC+00:00)
Language:

NOSS 3-4 (C) - Orbit

View from above orbital plane
View from above orbital plane
View from above satellite
View from above satellite

Ground track
Ground track

The orbit data is extracted from the following two-line orbital elements,

1 31708U 07027C   21248.80735485 0.00000100  00000-0  13461-3 0    04
2 31708  63.3986 110.2170 0317675  19.6557 340.3443 13.40820931    02
Epoch (UTC): 05 September 2021 19:22:35
Eccentricity: 0.0317675
inclination: 63.3986°
perigee height: 868 km
apogee height: 1344 km
right ascension of ascending node: 110.2170°
argument of perigee: 19.6557°
revolutions per day: 13.40820931
mean anomaly at epoch: 340.3443°
orbit number at epoch: 0

The dashed part of the orbit path shows where the satellite is in the earth's shadow,  

DLR